#timestamp,LO_Frequency,Hit,StdDev 
1524063615.1,286046998.4,N
1524063616.0,286046998.4,N
1524063635.8,286047001.0,N
1524063655.6,286046999.8,N
1524063675.5,286047002.5,N
1524063695.3,286047002.0,N
1524063715.2,286047000.1,N
1524063735.9,286047002.2,N
1524063755.7,286047002.0,N
1524063775.6,286047002.3,N
1524063795.4,286047000.2,N
1524063815.2,286047002.0,N
1524063835.1,286047000.5,N
1524063836.0,286047000.5,N
1524063855.8,286046999.7,N
1524063875.7,286046999.7,N
1524063895.5,286047002.3,N
1524063915.3,286047003.9,N
1524063935.2,286047002.5,N
1524063955.0,286047002.2,N
1524063955.9,286047002.2,N
1524063975.7,286047002.7,N
1524063995.6,286047001.9,N
1524064015.4,286047001.9,N
1524064035.3,286047003.8,N
1524064055.1,286047005.9,Y
1524064075.8,286047003.5,P
1524064095.7,286047003.0,N
1524064115.5,286047005.8,P
1524064135.3,286047004.1,N
1524064155.2,286047003.1,N
1524064175.0,286047003.7,N
1524064175.9,286047003.7,N
1524064195.8,286047002.1,N
1524064215.6,286047003.8,N
1524064235.4,286047001.9,N
1524064255.3,286047002.0,N
1524064275.1,286047002.5,N
1524064295.9,286047000.7,N
1524064315.7,286047002.5,N
1524064335.5,286046999.9,N
1524064355.4,286047000.6,N
1524064375.2,286047000.4,N
1524064395.0,286047000.4,N
1524064395.9,286047000.4,N
1524064415.8,286047000.0,N
1524064435.6,286046999.8,N
1524064455.5,286047000.1,N
1524064475.3,286047002.8,N
1524064495.1,286047002.3,N
1524064515.9,286047001.7,N
1524064535.7,286047002.5,N
1524064555.6,286047001.7,N
1524064575.4,286047001.6,N
1524064595.2,286047002.6,N
1524064615.1,286047002.4,N
1524064616.0,286047002.4,N
1524064635.8,286047002.2,N
1524064655.6,286047001.9,N
1524064675.5,286047001.3,N
1524064695.3,286047002.2,N
1524064715.2,286047002.8,N
1524064735.0,286047002.2,N
1524064735.9,286047002.2,N
1524064755.7,286047002.4,N
1524064775.6,286046999.7,N
1524064795.4,286047001.9,N
1524064815.3,286047001.4,N
1524064835.1,286047003.9,Y
1524064836.0,286047003.9,P
1524064855.8,286047002.2,N
1524064875.7,286047002.0,N
1524064895.5,286047002.3,N
1524064915.4,286047002.8,Y
1524064935.2,286046998.4,P
1524064955.0,286046999.0,N
1524064955.9,286046999.0,N
1524064975.8,286046996.7,N
1524064995.6,286046998.0,N
1524065015.4,286046997.6,N
1524065035.3,286046997.6,N
1524065055.1,286046997.6,N
1524065075.9,286046997.8,N
1524065095.7,286046999.3,N
1524065115.5,286046998.8,N
1524065135.4,286046999.4,N
1524065155.2,286046999.5,N
1524065175.0,286046996.7,N
1524065176.0,286046996.7,N
1524065195.8,286046997.5,N
1524065215.6,286046997.2,N
1524065235.5,286046997.3,N
1524065255.3,286046996.8,N
1524065275.1,286046999.2,N
1524065295.9,286046999.1,N
1524065315.7,286046996.5,N
1524065335.6,286046999.5,N
1524065355.4,286046998.9,N
1524065375.2,286046999.5,N
1524065395.1,286046999.1,N
1524065396.0,286046999.1,N
1524065415.8,286047000.9,N
1524065435.7,286046998.2,N
1524065455.5,286047001.2,N
1524065475.3,286046998.9,N
1524065495.2,286046999.1,N
1524065515.9,286046998.3,N
1524065535.7,286046998.5,N
1524065555.6,286047001.2,N
1524065575.4,286046998.6,N
1524065595.3,286046999.4,N
1524065615.1,286046997.2,N
1524065616.0,286046997.2,N
1524065635.8,286046997.3,N
1524065655.7,286046999.4,N
1524065675.5,286046999.0,N
1524065695.4,286047000.7,N
1524065715.2,286047011.9,Y
1524065735.0,286046999.9,P
1524065735.9,286046999.9,N
1524065755.8,286047000.0,N
1524065775.6,286047002.8,Y
1524065795.5,286047002.7,P
1524065815.3,286047002.8,N
1524065835.1,286047001.6,N
1524065855.9,286047001.9,N
1524065875.7,286047004.0,Y
1524065895.6,286047001.2,P
1524065915.4,286046999.4,N
1524065935.2,286046997.1,N
1524065955.1,286046997.0,N
1524065956.0,286046997.0,N
1524065975.8,286046999.4,N
1524065995.6,286046999.2,N
1524066015.5,286046996.8,N
1524066035.3,286046996.8,N
1524066055.2,286046998.3,N
1524066075.9,286046999.4,N
1524066095.7,286046998.1,N
1524066115.6,286046996.6,N
1524066135.4,286046995.1,Y
1524066155.3,286046998.3,P
1524066175.1,286047000.7,P
1524066176.0,286047000.7,N
1524066195.8,286046999.8,N
1524066215.7,286046999.8,N
1524066235.5,286047000.4,N
1524066255.3,286047000.5,N
1524066275.2,286047001.2,N
1524066295.0,286046998.2,N
1524066295.9,286046998.2,N
1524066315.8,286047000.4,N
1524066335.6,286047000.6,N
1524066355.4,286046998.2,N
1524066375.3,286046998.5,N
1524066395.1,286046999.9,N
1524066415.8,286047000.1,N
1524066435.7,286047000.9,N
1524066455.5,286046999.7,N
1524066475.4,286047002.3,N
1524066495.2,286047000.3,N
1524066515.0,286047000.5,N
1524066515.9,286047000.5,N
1524066535.8,286047000.8,N
1524066555.6,286047000.0,N
1524066575.5,286046999.8,N
1524066595.3,286047001.9,N
1524066615.1,286046999.7,N
1524066635.9,286047000.5,N
1524066655.7,286047000.4,N
1524066675.5,286047000.9,N
1524066695.4,286046999.9,N
1524066715.2,286046999.8,N
1524066735.1,286046999.8,N
1524066736.0,286046999.8,N
1524066755.8,286046999.7,N
1524066775.6,286046999.8,N
1524066795.5,286047002.5,N
1524066815.3,286046999.9,N
1524066835.2,286047000.4,N
1524066855.9,286047001.2,N
1524066875.7,286046998.1,N
1524066895.6,286047000.2,N
1524066915.4,286047001.6,N
1524066935.2,286047001.7,N
1524066955.1,286047000.2,N
1524066956.0,286047000.2,N
1524066975.8,286046999.8,N
1524066995.7,286047002.5,N
1524067015.5,286047001.9,N
1524067035.3,286047002.3,N
1524067055.2,286047002.8,N
1524067075.0,286046999.9,N
1524067075.9,286046999.9,N
1524067095.8,286047001.5,N
1524067115.6,286047001.6,N
1524067135.4,286047001.4,N
1524067155.3,286047000.4,N
1524067175.1,286046999.1,N
1524067195.8,286046999.1,N
